Regional Weather Roundup
Issued by NWS

Home | Current Version | Previous Version | Text Only | Print | Product List | Glossary On
Versions: 1 2 3 4 5 6 7 8 9 10 11 12 13 14 15 16 17 18 19 20 21 22 23 24 25 26 27 28 29 30 31 32 33 34 35 36 37 38 39 40 41 42 43 44 45 46 47 48 49 50
000
ASHW40 PHFO 241143
RWRHI

WEATHER ROUNDUP FOR HAWAII
NATIONAL WEATHER SERVICE HONOLULU HI
100 AM HST SUN MAY 24 2015

THIS IS AN AUTOMATED REPORT THAT HAS NOT BEEN QUALITY CONTROLLED.

NOTE..."FAIR" INDICATES FEW OR NO CLOUDS BELOW 12,000 FEET WITH NO
SIGNIFICANT WEATHER AND/OR OBSTRUCTIONS TO VISIBILITY.

* - THESE SITES REPORT LIMITED FIELDS

HIZ001>004-241200-
KAUAI-NIIHAU-

CITY           SKY/WX    TMP DP  RH WIND       PRES   REMARKS
LIHUE APT      MOCLDY    69  56  62 N12       30.12F
PORT ALLEN*    NOT AVBL
POIPU*           N/A     70 N/A N/A N6G13       N/A
PRINCEVILLE*     N/A     70 N/A N/A MISG        N/A
KOKOLE POINT*  NOT AVBL
MOLOAA DAIRY*  NOT AVBL
WAIMEA HTS*      N/A     68  54  60 N2G10       N/A
PUU OPAE*        N/A     61  52  72 NE8G14      N/A
PUU LUA*       NOT AVBL
MAKAHA RIDGE*    N/A     63  55  77 NE5G12      N/A
$$

HIZ005>011-241200-
OAHU-

CITY           SKY/WX    TMP DP  RH WIND       PRES   REMARKS
HONOLULU       PTCLDY    72  60  66 N5        30.08F
KALAELOA       CLEAR     69  59  70 VRB6      30.09F
KANEOHE MCB    CLOUDY    72  60  66 NE9       30.06F
WHEELER FIELD  FAIR      63  59  85 NW5       30.08F
BELLOWS*         N/A    N/A N/A N/A NE13G21     N/A
KAHUKU*          N/A    N/A N/A N/A NE5         N/A
WHEELER*       NOT AVBL
WAIANAE HARBOR NOT AVBL
DILLINGHAM*      N/A     70  59  68 MISG        N/A
KAHUKU TRN*      N/A     70  57  64 NE6G13      N/A
KAWAILOA*        N/A     64  57  77 NE6G18      N/A
KII*             N/A     72  59  64 NE14        N/A
MAKUA RANGE*     N/A     72  59  64 E5G13       N/A
OAHU FOREST NW   N/A     61  14  16 CALM        N/A
SCHOFIELD BRK*   N/A     63  57  82 MISG        N/A
SCHOFIELD S*   NOT AVBL
WAIANAE VLY*     N/A     68  57  68 NW5G18      N/A
KUAOKALA*        N/A     68  59  73 N13G25      N/A
HONOULIUULI*   NOT AVBL
MOKUOLOE IS*     N/A    N/A N/A N/A MISG        N/A
PALEHUA*         N/A     61  55  82 NE7G16      N/A
WAIAWA PHB*    NOT AVBL
$$

HIZ012>013-241200-
MOLOKAI-

CITY           SKY/WX    TMP DP  RH WIND       PRES   REMARKS
MOLOKAI AIRPT  CLEAR     70  60  70 N8        30.08F
KALAUPAPA      NOT AVBL
MAKAPULAPAI*     N/A     72  61  68 NE12        N/A
MOLOKAI 1*       N/A     61  54  77 N6G14       N/A
PUU ALII*        N/A     53  53 100 CALM        N/A
$$

HIZ016-241200-
KAHOOLAWE-

CITY           SKY/WX    TMP DP  RH WIND       PRES   REMARKS
KAHOOLAWE*       N/A     64 N/A N/A NE13G20     N/A
HAKIOAWA*        N/A     67  61  81 MISG      30.48
HONOKANAIA*      N/A     71  60  69 N13G26    30.07F
KANELOA*         N/A    N/A N/A N/A N18G33    30.12F
KEALIALALO*      N/A     68  61  77 NE12G22   30.05F
LUA MAKIKA*    NOT AVBL
$$

HIZ014>015-241200-
LANAI-

CITY           SKY/WX    TMP DP  RH WIND       PRES   REMARKS
LANAI CITY     FAIR      65  58  78 NE17      30.10F
LANAI 1*         N/A     64  57  77 NE15G22     N/A
$$

HIZ017>028-241200-
MAUI-

CITY           SKY/WX    TMP DP  RH WIND       PRES   REMARKS
KAHULUI        PTCLDY    68  62  81 NE6       30.08F
KAPALUA-W MAUI NOT AVBL
HANA AIRPORT   CLOUDY    66  63  88 CALM      30.09F
HANA*            N/A     68 N/A N/A SW5         N/A
HALEAKALA SUMM   N/A     41   0  17 NW18        N/A
MAALAEA BAY*   NOT AVBL
HALEAKALA*     NOT AVBL
KAUPO GAP*       N/A     55  52  88 N8          N/A
KULA 1*          N/A     50  -1  12 E3          N/A
$$

HIZ023>026-241200-
BIG ISLAND OF HAWAII COAST AND LOWER SLOPES-

CITY           SKY/WX    TMP DP  RH WIND       PRES   REMARKS
KAILUA KONA    PTCLDY    75  64  68 E7        30.02F
HILO           CLOUDY    71  63  75 N6        30.07F
HONOKAA*       NOT AVBL
KAWAIHAE MWT*    N/A     75 N/A N/A NE6         N/A
KAWAIHAE*        N/A     73 N/A N/A NE3         N/A
SOUTH POINT*     N/A     70 N/A N/A NW1         N/A
UPOLU AIRPORT*   N/A    N/A N/A N/A E10         N/A
KAMUELA*       PTSUNNY   57  57 100 E13       30.13F
HAKALAU*         N/A     43  41  93 SW3         N/A
KALOKO-HONOKO*   N/A     72  63  73 NE5       30.01F
PALI 2*          N/A     63  59  88 N9          N/A
KEALAKOMO*       N/A     90  77  66 N22G29      N/A  HX 102
KAUPULEHU*       N/A     66  59  77 SE6         N/A
KAPAPALA*        N/A     64  63  97 N3          N/A
LOWER KAHUKU*    N/A     59  59 100 N2          N/A
PUHE CS*         N/A     73  59  60 NE3         N/A
PUHO CS*         N/A     73  63  69 E2          N/A
PTA KEAMUKU*     N/A     57  54  88 CALM        N/A
WAIKOLOA*        N/A     66  59  77 E12G20      N/A
$$

HIZ027>028-241200-
BIG ISLAND OF HAWAII INTERIOR AND SUMMMITS-

CITY           SKY/WX    TMP DP  RH WIND       PRES   REMARKS
BRADSHAW FIELD MOCLDY    49  45  85 N3        30.33F
MK VISITOR CEN NOT AVBL
MAUNA KEA*       N/A     36  10  35 NW20        N/A  WCI  25
MAUNA LOA*       N/A     43   5  21 MISG        N/A
MAUNA LOA 1*   NOT AVBL
PTA KIPUKA*      N/A     55  54  94 CALM        N/A
PTA RANGE 17*    N/A     54  48  82 E3          N/A
PTA WEST*        N/A     70  68  94 S1          N/A
NENE CABIN*      N/A     48 N/A N/A NW2         N/A
AHUMOA*          N/A     48  45  87 SE9         N/A
PTA PORTABLE*  NOT AVBL
PUU MALI*        N/A     46  45  93 SW8         N/A
$$

HIC003-241200-
NORTHWEST ISLANDS-

CITY           SKY/WX    TMP DP  RH WIND       PRES   REMARKS
MIDWAY ISLAND  CLOUDY   N/A N/A N/A E10       30.31F
MIDWAY NOS*    NOT AVBL
FRENCH FRIGATE NOT AVBL
$$

PHZ110>124-180-241200-
BUOY REPORTS

STATION/POSITION TIME  TEMP    WIND        PRES    WAVE   SWELL
                       AIR SEA DIR/SP/G            HT/PER HT/DIR
                 (UTC) (F)     (DEG/KT/KT) (MB)    (FT/S) (FT/D)
BUOY 51001       NOT AVBL
BUOY 51101       1100   72 76   50/ 16/ 19 1021.3F   7/11   5/ 20
BUOY 51100       NOT AVBL
BUOY 51002       1100   77 79   90/  6/  8 1016.7F   5/16   5/210
BUOY 51003       1100   76 79   60/ 16/ 19 1018.1F   7/ 8   5
BUOY 51004       1000   76 79   80/  4/  6 1016.5F   4/16   5/180
BARBERS PT BUOY  NOT AVBL
WAIMEA BAY BUOY  1100      77                N/A     8/10   3/ 10
KAILUA BAY BUOY  1100      77                N/A     5/ 9   2/ 10
LANAI BUOY       NOT AVBL
BARBERS PT 2     1100      77                N/A     4/13   3/200
PAUWELA MAUI     1100      77                N/A     6/10   3/360
HILO             1100      77                N/A     5/10   2/360
KANEOHE BAY BUOY 1100      77                N/A     7/10   3
HANALEI KAUAI    1100      78                N/A     7/ 9
KAHULUI HARBOR   1100   73 78   20/  7/  9 1018.1F
HONOLULU HARBOR  1100   72 77   CALM  /  2 1018.5F
KILO NALU        NOT AVBL
HILO HARBOR      1100   72 76  300/  7/  8 1017.6F
MOKUOLOE         1100   73 78   50/ 10/ 12 1018.9S
NAWILIWILI       1100   69 79  310/  2/  7 1019.2F
WHOTS BUOY       NOT AVBL
BUOY 51028       NOT AVBL
$$

......................KEY........................................
  SKY/WX - SKY CONDITIONS/PRESENT WEATHER
  TMP    - TEMPERATURE IN FAHRENHEIT
  DWPT   - DEWPOINT IN FAHRENHEIT
  RH     - RELATIVE HUMIDITY IN PERCENT
  WIND   - DIRECTION AND SPEED /MPH FOR ISLANDS...KTS FOR BUOYS/
  PRES   - MEAN SEA LEVEL PRESSURE IN INCHES OF HG
  VSB    - VISIBILITY IN MILES
  HX     - HEAT INDEX
  WCI    - WIND CHILL INDEX
  VRB    - VARIABLE WIND DIRECTION
  N/A    - NOT AVAILABLE


USA.gov is the U.S. government's official web portal to all federal, state and local government web resources and services.